SCP
0 0 0 0 0 0 0 0 0 0 0 0 0 0 0 0 0 0 0 0 0 0 0 0 0 0 0 0 0 0 0 0 0 0 0 0 0 0 0 0 0 0 0
0 0 0 0 0 0 0 0 0 0 0 0 0 0 0 0 0 0 0 0 0 0 0 0 0 0 0 0 0 0 0 0 0 0 0 0 0 0 0 0 0 0 0
0 0 0 0 0 0 0 0 0 0 0 0 0 0 0 0 0 0 0 0 0 0 0 0 0 0 0 0 0 0 0 0 0 0 0 0 0 0 0 0 0 0 0
0 0 0 0 0 0 0 0 0 0 0 0 0 0 0 0 0 0 0 0 0 0 0 0 0 0 0 0 0 0 0 0 0 0 0 0 0 0 0 0 0 0 0
0 0 0 0 0 0 0 0 0 0 0 0 0 0 0 0 0 0 0 0 0 0 0 0 0 0 0 0 0 0 0 0 0 0 0 0 0 0 0 0 0 0 0
0 0 0 0 0 0 0 0 0 0 0 0 0 0 0 0 0 0 0 0 0 0 0 0 0 0 0 0 0 0 0 0 0 0 0 0 0 0 0 0 0 0 0
0 0 0 0 0 0 0 0 0 0 0 0 0 0 0 0 0 0 0 0 0 0 0 0 0 0 0 0 0 0 0 0 0 0 0 0 0 0 0 0 0 0 0
0 0 0 0 0 0 0 0 0 0 0 0 0 0 0 0 0 0 0 0 0 0 0 0 0 0 0 0 0 0 0 0 0 0 0 0 0 0 0 0 0 0 0
0 0 0 0 0 0 0 0 0 0 0 0 0 0 0 0 0 0 0 0 0 0 0 0 0 0 0 0 0 0 0 0 0 0 0 0 0 0 0 0 0 0 0
0 0 0 0 0 0 0 0 0 0 0 0 0 0 0 0 0 0 0 0 0 0 0 0 0 0 0 0 0 0 0 0 0 0 0 0 0 0 0 0 0 0 0
0 0 0 0 0 0 0 0 0 0 0 0 0 0 0 0 0 0 0 0 0 0 0 0 0 0 0 0 0 0 0 0 0 0 0 0 0 0 0 0 0 0 0
0 0 0 0 0 0 0 0 0 0 0 0 0 0 0 0 0 0 0 0 0 0 0 0 0 0 0 0 0 0 0 0 0 0 0 0 0 0 0 0 0 0 0
0 0 0 0 0 0 0 0 0 0 0 0 0 0 0 0 0 0 0 0 0 0 0 0 0 0 0 0 0 0 0 0 0 0 0 0 0 0 0 0 0 0 0
0 0 0 0 0 0 0 0 0 0 0 0 0 0 0 0 0 0 0 0 0 0 0 0 0 0 0 0 0 0 0 0 0 0 0 0 0 0 0 0 0 0 0
0 0 0 0 0 0 0 0 0 0 0 0 0 0 0 0 0 0 0 0 0 0 0 0 0 0 0 0 0 0 0 0 0 0 0 0 0 0 0 0 0 0 0
0 0 0 0 0 0 0 0 0 0 0 0 0 0 0 0 0 0 0 0 0 0 0 0 0 0 0 0 0 0 0 0 0 0 0 0 0 0 0 0 0 0 0
0 0 0 0 0 0 0 0 0 0 0 0 0 0 0 0 0 0 0 0 0 0 0 0 0 0 0 0 0 0 0 0 0 0 0 0 0 0 0 0 0 0 0
0 0 0 0 0 0 0 0 0 0 0 0 0 0 0 0 0 0 0 0 0 0 0 0 0 0 0 0 0 0 0 0 0 0 0 0 0 0 0 0 0 0 0
0 0 0 0 0 0 0 0 0 0 0 0 0 0 0 0 0 0 0 0 0 0 0 0 0 0 0 0 0 0 0 0 0 0 0 0 0 0 0 0 0 0 0
0 0 0 0 0 0 0 0 0 0 0 0 0 0 0 0 0 0 0 0 0 0 0 0 0 0 0 0 0 0 0 0 0 0 0 0 0 0 0 0 0 0 0
0 0 0 0 0 0 0 0 0 0 0 0 0 0 0 0 0 0 0 0 0 0 0 0 0 0 0 0 0 0 0 0 0 0 0 0 0 0 0 0 0 0 0
0 0 0 0 0 0 0 0 0 0 0 0 0 0 0 0 0 0 0 0 0 0 0 0 0 0 0 0 0 0 0 0 0 0 0 0 0 0 0 0 0 0 0
0 0 0 0 0 0 0 0 0 0 0 0 0 0 0 0 0 0 0 0 0 0 0 0 0 0 0 0 0 0 0 0 0 0 0 0 0 0 0 0 0 0 0
0 0 0 0 0 0 0 0 0 0 0 0 0 0 0 0 0 0 0 0 0 0 0 0 0 0 0 0 0 0 0 0 0 0 0 0 0 0 0 0 0 0 0
0 0 0 0 0 0 0 0 0 0 0 0 0 0 0 0 0 0 0 0 0 0 0 0 0 0 0 0 0 0 0 0 0 0 0 0 0 0 0 0 0 0 0
0 0 0 0 0 0 0 0 0 0 0 0 0 0 0 0 0 0 0 0 0 0 0 0 0 0 0 0 0 0 0 0 0 0 0 0 0 0 0 0 0 0 0
Wind_Speed
5 5 6 7 8 8 8 9 9 9 9 10 10 10 11 11 10 10 11 11 11 12 11 12 12 12 10 9 9 9 9 9 10 8 5 5 5 5 4 3 3 4 4
5 6 7 7 8 9 9 9 9 10 10 10 10 11 11 11 11 11 12 12 12 12 13 12 13 11 12 11 10 11 10 9 10 10 7 5 5 5 4 3 3 3 3
6 6 7 8 8 9 9 9 10 10 10 10 10 11 11 11 11 12 12 12 12 13 13 13 13 13 12 11 11 11 10 10 10 10 9 5 4 4 4 3 3 2 3
6 7 8 8 9 9 10 10 10 10 10 10 10 11 11 11 11 12 12 12 12 13 13 13 13 13 13 13 11 12 11 11 10 10 9 7 5 4 4 3 3 3 3
7 8 8 8 9 9 10 10 10 10 11 10 11 11 10 10 9 9 10 12 12 13 13 13 13 12 11 10 10 10 11 10 10 10 10 8 7 5 5 3 3 4 3
7 8 8 9 9 10 10 10 10 10 10 10 11 11 11 9 3 4 10 13 13 13 13 13 13 13 14 14 15 15 13 13 12 10 10 9 8 7 5 4 4 4 4
7 8 8 9 10 10 10 10 10 10 10 11 11 11 11 10 5 7 10 12 14 13 13 12 12 12 12 14 15 18 18 18 16 13 13 11 9 8 7 7 6 5 3
7 8 8 9 10 10 10 10 10 9 10 10 10 11 11 10 6 8 9 13 14 14 14 14 13 14 13 12 13 13 15 15 16 15 14 12 10 6 7 7 5 4 3
8 8 8 9 10 10 11 11 10 10 10 10 10 11 11 11 7 8 9 11 11 13 13 13 13 14 11 9 12 13 13 12 11 11 10 7 4 3 5 5 6 6 5
8 8 9 9 10 11 11 11 10 10 10 11 10 10 11 12 7 6 8 9 10 10 10 11 11 13 10 8 12 13 13 12 11 11 12 11 11 10 10 9 8 7 6
8 8 9 9 10 10 10 10 10 10 10 11 11 11 11 10 8 7 8 8 9 10 9 8 7 8 11 10 11 12 11 10 10 10 10 11 11 10 11 11 9 8 7
8 9 9 9 10 9 9 10 10 10 10 10 10 10 8 7 7 5 7 10 10 10 10 9 6 3 7 10 11 10 8 8 9 8 9 9 9 10 10 10 10 9 6
8 9 9 10 9 9 9 10 10 9 8 8 8 8 8 7 4 7 9 10 11 10 8 7 7 6 7 9 12 11 10 10 9 9 9 9 9 9 8 8 9 8 7
9 9 9 9 9 8 7 8 8 8 8 8 8 8 8 8 6 4 4 5 9 9 8 8 10 10 10 8 7 10 10 9 9 9 9 8 8 8 8 8 8 8 7
9 9 9 9 8 8 8 7 9 8 7 9 10 9 9 9 5 5 7 7 7 6 7 7 7 6 7 7 7 8 8 9 9 9 8 8 8 8 8 8 8 8 8
9 9 8 8 7 8 8 8 7 10 9 11 13 12 9 9 9 9 9 10 10 9 7 8 7 6 7 7 7 7 8 8 8 8 8 8 8 8 9 8 9 9 9
10 9 8 8 8 8 8 9 9 7 10 14 14 14 14 13 12 11 10 10 11 9 7 8 7 6 6 6 6 7 7 7 7 7 7 8 8 8 9 9 9 9 9
10 9 8 8 8 8 8 8 8 9 9 7 7 12 13 12 12 11 9 7 8 8 7 7 6 6 5 5 5 6 6 6 6 7 7 7 8 8 9 9 9 10 9
10 8 7 8 8 8 8 8 8 9 8 8 7 3 7 9 10 10 8 8 7 6 6 6 6 5 5 4 4 4 5 5 6 7 7 8 8 8 8 9 9 10 9
9 9 8 9 9 9 8 8 8 8 8 7 6 6 4 5 5 4 6 6 6 6 5 5 5 5 4 4 4 5 5 5 7 7 7 7 8 8 9 9 9 9 9
8 7 9 9 10 8 8 8 7 7 8 7 6 4 4 7 6 6 5 4 5 5 5 5 4 5 4 4 5 5 6 6 6 7 7 7 8 7 7 8 9 9 9
8 8 7 8 8 7 8 8 7 7 8 8 6 3 4 6 6 5 4 4 4 4 4 4 4 4 4 4 5 6 6 6 6 6 7 7 7 7 7 7 8 8 8
9 9 9 8 7 7 8 8 7 7 7 7 6 5 4 4 5 5 4 4 3 3 3 3 4 4 4 4 4 5 5 5 5 6 7 7 7 7 7 8 9 9 9
9 9 9 8 7 7 7 7 7 6 6 7 6 5 4 4 4 4 4 4 3 3 3 3 3 4 4 4 4 4 4 3 4 5 8 7 7 7 8 8 9 10 10
9 8 8 8 8 7 7 7 6 5 5 5 5 5 4 4 4 3 3 3 2 2 3 3 2 3 4 5 4 2 3 2 1 3 6 7 8 8 8 9 8 9 9
9 8 7 7 7 7 6 6 6 5 5 4 4 4 4 4 4 4 3 3 2 1 2 2 2 3 3 3 1 2 3 2 2 3 5 6 8 8 8 8 10 10 11
Wind_Direction
289 290 293 292 295 292 287 288 289 288 288 284 285 285 282 279 276 271 269 273 266 264 263 258 254 260 264 262 254 252 252 252 261 267 260 269 272 281 275 265 235 209 190
291 289 290 293 293 292 293 296 292 288 284 284 283 283 281 279 276 272 270 271 269 266 263 263 261 256 251 255 257 253 253 254 257 264 263 262 258 267 266 256 242 207 185
297 294 297 297 298 297 298 296 294 290 287 286 284 284 283 283 279 275 271 269 268 266 265 263 262 260 258 254 253 254 251 245 244 252 254 248 251 251 257 242 214 182 163
299 298 299 302 303 301 299 297 294 292 290 288 287 285 284 282 279 277 274 271 269 267 265 263 261 259 256 256 252 251 253 254 247 247 250 242 230 227 232 227 199 169 158
298 299 302 304 302 299 299 297 295 292 289 288 287 285 283 279 276 285 287 280 275 271 266 262 260 260 268 268 268 259 252 247 245 240 241 239 229 215 222 216 203 161 143
293 298 303 302 302 302 301 299 297 294 292 289 286 285 284 282 318 310 286 285 281 275 271 267 264 252 244 238 249 260 267 260 254 251 245 238 232 224 217 218 198 182 166
294 297 300 302 303 304 304 303 300 298 294 291 288 286 284 284 265 253 258 273 273 271 269 267 264 261 245 244 232 230 239 246 253 260 258 252 237 219 210 210 204 204 177
295 298 302 303 303 305 303 300 299 296 294 291 289 289 288 284 255 248 256 264 265 265 264 262 261 264 261 257 256 245 238 231 227 232 245 251 251 237 214 214 208 183 150
297 301 304 305 303 303 301 302 300 296 292 291 289 290 288 286 261 243 256 276 268 267 265 263 263 262 256 245 254 256 252 245 231 229 239 250 266 216 208 208 198 188 178
303 305 304 300 299 299 299 300 298 294 289 290 292 292 289 287 275 235 247 272 276 277 273 267 256 254 262 238 248 251 249 244 240 215 212 220 223 208 200 215 207 200 184
303 302 298 298 296 292 293 293 292 290 291 290 291 288 283 280 271 231 234 268 281 283 280 275 268 230 231 234 244 254 256 262 248 235 225 219 216 211 204 207 209 208 196
295 293 294 296 297 299 296 293 292 291 289 287 286 288 286 277 266 239 219 243 273 279 278 279 282 250 231 230 234 245 251 252 247 239 227 223 217 210 205 203 199 203 207
289 290 293 295 295 292 292 294 292 288 288 293 296 297 300 301 275 215 224 238 247 262 276 290 292 276 249 234 231 232 230 231 231 230 228 224 219 212 203 194 192 191 190
281 286 288 290 291 294 293 290 292 296 296 299 300 299 300 298 299 299 273 247 237 247 262 260 241 240 244 254 230 213 223 227 227 228 226 223 215 205 200 193 185 179 174
277 281 285 286 292 295 288 286 288 292 298 296 301 302 301 302 330 342 308 300 305 312 307 281 262 244 231 226 225 222 216 216 220 226 223 218 210 205 201 192 185 183 183
270 275 283 289 297 294 295 293 257 248 257 250 252 265 282 280 287 286 279 274 275 279 277 265 260 250 240 230 223 220 216 216 218 219 219 213 207 202 199 192 187 190 187
265 277 285 290 294 293 296 300 302 281 238 236 239 242 248 269 277 276 273 272 266 254 251 258 258 254 249 240 227 221 219 214 213 215 214 210 205 201 195 191 191 192 189
261 267 264 275 282 287 292 295 294 297 301 295 245 227 234 247 257 261 260 263 252 228 243 256 260 254 246 240 228 222 216 206 205 210 210 208 204 198 195 193 191 191 187
262 269 274 284 283 283 285 287 289 292 294 300 304 263 223 238 239 241 233 246 264 261 251 251 257 257 246 232 222 217 211 205 208 210 206 204 200 197 196 195 192 185 187
254 252 258 276 279 281 281 286 293 295 295 299 307 309 306 284 280 244 222 243 259 263 263 258 255 251 243 230 218 214 212 205 206 210 201 196 194 197 198 196 190 184 187
266 256 223 251 267 276 284 288 293 296 296 301 305 319 319 303 302 300 289 271 265 267 264 261 258 249 237 224 220 216 212 209 206 206 198 193 193 195 199 196 190 187 184
270 271 271 272 278 281 287 288 288 289 292 297 301 288 223 273 298 306 307 300 284 273 270 269 263 250 240 228 219 217 212 208 203 203 200 195 190 193 196 195 190 184 178
267 272 272 271 273 272 267 273 282 286 293 298 299 308 310 310 311 312 308 300 292 280 267 263 268 262 244 233 229 224 219 212 203 199 198 194 191 192 194 193 192 186 181
269 269 273 276 276 277 279 284 285 289 296 297 303 313 317 313 311 317 315 313 304 292 273 261 258 263 256 241 230 222 213 211 214 207 206 201 196 194 192 190 191 190 186
274 272 274 275 277 279 283 288 292 296 295 298 309 319 323 321 321 328 329 326 312 297 284 277 270 257 247 242 235 212 118 124 236 248 208 211 207 201 195 192 188 185 183
273 272 271 273 276 284 290 296 298 300 298 301 309 318 324 323 327 335 337 333 320 295 288 285 281 262 239 228 202 109 122 155 204 271 245 214 206 201 197 195 190 187 185